Home   Weather   Devanahalli   Past weeks
Flag for India

Past Weather in Devanahalli, Karnataka, India — Yesterday and Last 2 Weeks

Now
81 °F

Scattered clouds.


Feels Like: 85 °F
Forecast: 81 / 70 °F
Wind: 6 mph from West

Location: Bengaluru Internatinal Airport

Current Time: Sep 23, 2019 at 12:55:44 pm

Latest Report: Sep 23, 2019 at 12:30 pm


Visibility: 5 mi

Pressure: 29.92 "Hg (26.98 "Hg at 907m altitude)

Humidity: 79%

Dew Point: 73 °F

Location of DevanahalliLocation

Past Weather in Devanahalli — Graph

°F

Devanahalli Temperature Yesterday

Maximum temperature yesterday: 81 °F (at 12:30 pm)
Minimum temperature yesterday: 68 °F (at 5:30 am)
Average temperature yesterday: 75 °F

High & Low Weather Summary for the Past Weeks

 TemperatureHumidityPressure
High86 °F (Sep 14, 3:00 pm)100% (Sep 8, 7:00 pm)30.07 "Hg (Sep 8, 7:00 pm)
Low68 °F (Sep 21, 5:30 am)45% (Sep 15, 4:00 pm)29.80 "Hg (Sep 17, 5:00 pm)
Average75 °F88%29.93 "Hg
* Reported Sep 8 11:30 am — Sep 23 11:30 am, Devanahalli. Weather by CustomWeather, © 2019

Note: Actual official high and low records may vary slightly from our data, if they occured in-between our weather recording intervals... More about our weather records

Advertising

Devanahalli Weather History for the Previous 24 Hours

Scroll right to see more
 ConditionsComfort  
Time TempWeatherWind HumidityBarometerVisibility
11:30 am
Mon, Sep 23
81 °FScattered clouds.3 mph74%29.95 "Hg5 mi
11:00 am81 °FScattered clouds.6 mph79%29.98 "Hg5 mi
10:30 am79 °FScattered clouds.5 mph84%29.98 "Hg5 mi
10:00 am79 °FScattered clouds.3 mph79%29.98 "Hg5 mi
9:30 am77 °FScattered clouds.5 mph89%29.98 "Hg4 mi
9:00 am77 °FScattered clouds.7 mph94%29.98 "Hg4 mi
8:30 am73 °FScattered clouds.8 mph100%29.98 "Hg4 mi
8:00 am73 °FScattered clouds.7 mph100%29.98 "Hg4 mi
7:30 am72 °FScattered clouds.8 mph100%29.98 "Hg4 mi
7:00 am72 °FScattered clouds.9 mph100%29.98 "Hg4 mi
6:30 am72 °FFog.8 mph100%29.98 "Hg2 mi
6:00 am72 °FFog.8 mph100%29.95 "Hg2 mi
5:30 am72 °FPassing clouds.9 mph100%29.95 "Hg4 mi
5:00 am72 °FPassing clouds.2 mph100%29.92 "Hg4 mi
4:30 am72 °FPassing clouds.No wind100%29.92 "Hg4 mi
4:00 am72 °FPassing clouds.No wind100%29.92 "Hg4 mi
3:30 am72 °FPassing clouds.2 mph100%29.92 "Hg4 mi
3:00 am72 °FPassing clouds.No wind100%29.92 "Hg4 mi
2:30 am72 °FPassing clouds.2 mph100%29.92 "Hg4 mi
2:00 am72 °FPassing clouds.2 mph100%29.92 "Hg4 mi
1:30 am73 °FPassing clouds.2 mph100%29.95 "Hg4 mi
1:00 am72 °FPartly cloudy.2 mph100%29.95 "Hg4 mi
12:30 am73 °FPartly cloudy.2 mph100%29.95 "Hg4 mi
12:00 am73 °FPartly cloudy.2 mph100%29.95 "Hg4 mi
11:30 pm
Sun, Sep 22
73 °FPartly cloudy.1 mph100%29.98 "Hg4 mi
11:00 pm73 °FPartly cloudy.2 mph100%29.98 "Hg4 mi
10:30 pm73 °FPartly cloudy.3 mph100%29.98 "Hg4 mi
10:00 pm75 °FPartly cloudy.6 mph100%29.98 "Hg4 mi
9:30 pm75 °FPartly cloudy.No wind100%29.98 "Hg4 mi
9:00 pm75 °FPartly cloudy.No wind100%29.95 "Hg4 mi
8:30 pm75 °FPartly cloudy.No wind100%29.95 "Hg4 mi
8:00 pm75 °FPartly cloudy.No wind100%29.95 "Hg4 mi
7:30 pm75 °FPartly cloudy.2 mph100%29.92 "Hg4 mi
7:00 pm75 °FPartly cloudy.2 mph100%29.92 "Hg4 mi
6:30 pm75 °FBroken clouds.2 mph100%29.92 "Hg4 mi
6:00 pm75 °FBroken clouds.5 mph100%29.89 "Hg4 mi
5:30 pm77 °FBroken clouds.8 mph94%29.89 "Hg4 mi
5:00 pm79 °FBroken clouds.8 mph84%29.86 "Hg4 mi
4:30 pm79 °FBroken clouds.5 mph84%29.86 "Hg4 mi
4:00 pm79 °FBroken clouds.6 mph84%29.86 "Hg4 mi
3:30 pm79 °FBroken clouds.3 mph79%29.86 "Hg4 mi
3:00 pm79 °FBroken clouds.6 mph89%29.86 "Hg4 mi
2:30 pm79 °FBroken clouds.5 mph84%29.89 "Hg4 mi
2:00 pm79 °FBroken clouds.7 mph89%29.89 "Hg4 mi
1:30 pm81 °FBroken clouds.1 mph74%29.89 "Hg4 mi
1:00 pm79 °FBroken clouds.3 mph79%29.92 "Hg4 mi
12:30 pm81 °FBroken clouds.3 mph74%29.95 "Hg4 mi
12:00 pm77 °FBroken clouds.5 mph83%29.95 "Hg4 mi
Weather by CustomWeather, © 2019

See weather overview